Boulder City, NV

8:35 PM PST on November 21, 2019 (GMT -0800)
Boulder City

Weather History for KBVU - September, 2019

Change the Weather History Date:

Monday, September 16, 2019

  Actual Average (WUND) Record (WUND)
Temperature  
Mean Temperature 83 °F -  
Max Temperature 95 °F - - (-1)
Min Temperature 71 °F - - (-1)
Cooling Degree Days 18    
Growing Degree Days 33 (Base 50)    
Moisture  
Dew Point 28 °F    
Average Humidity 13    
Maximum Humidity 27    
Minimum Humidity 7    
Precipitation  
Precipitation 0.00 in - - ()
Sea Level Pressure  
Sea Level Pressure 29.83 in    
Wind  
Wind Speed 9 mph ()    
Max Wind Speed 26 mph    
Max Gust Speed 36 mph    
Visibility 10.0 miles    
Events      
Averages and records for this station are not official NWS values.
T = Trace of Precipitation, MM = Missing Value Source: Averaged Metar Reports

Daily Weather History Graph

Daily Weather History Graph

Search for Another Location

Airport or City:

Astronomy

Sep. 16, 2019 Rise Set
Actual Time 6:22 AM PDT 6:45 PM PDT
Civil Twilight 5:56 AM PDT 7:10 PM PDT
Nautical Twilight 5:26 AM PDT 7:41 PM PDT
Astronomical Twilight 4:56 AM PDT 8:11 PM PDT
Moon 8:25 PM PDT (9/16) 8:30 AM PDT (9/16)
Length of Visible Light 13h 14m
Length of Day
12h 22m
Waning Gibbous, 94% of the Moon is Illuminated
Sep 16
Waning Gibbous
Sep 21
Last Quarter
Sep 28
New
Oct 5
First Quarter
Oct 13
Full

Hourly Weather History & Observations

Time (PDT) Temp. Dew Point Humidity Pressure Visibility Wind Dir Wind Speed Gust Speed Precip Events Conditions
12:15 AM 82.4 °F 42.8 °F 25% 29.84 in 10.0 mi Calm Calm - N/A   Scattered Clouds
12:35 AM 84.2 °F 33.8 °F 16% 29.84 in 10.0 mi SW 11.5 mph - N/A   Scattered Clouds
12:55 AM 84.2 °F 30.2 °F 14% 29.84 in 10.0 mi SW 8.1 mph - N/A   Clear
1:15 AM 82.4 °F 28.4 °F 14% 29.84 in 10.0 mi West 6.9 mph - N/A   Clear
1:35 AM 80.6 °F 30.2 °F 16% 29.84 in 10.0 mi NE 4.6 mph - N/A   Clear
1:55 AM 77.0 °F 35.6 °F 22% 29.85 in 10.0 mi Calm Calm - N/A   Clear
2:15 AM 75.2 °F 39.2 °F 27% 29.85 in 10.0 mi ENE 4.6 mph - N/A   Partly Cloudy
2:35 AM 75.2 °F 37.4 °F 25% 29.84 in 10.0 mi Calm Calm - N/A   Partly Cloudy
2:55 AM 77.0 °F 32.0 °F 19% 29.85 in 10.0 mi ESE 5.8 mph - N/A   Clear
3:15 AM 80.6 °F 24.8 °F 13% 29.85 in 10.0 mi SSW 3.5 mph - N/A   Clear
3:35 AM 80.6 °F 26.6 °F 14% 29.85 in 10.0 mi SW 3.5 mph - N/A   Clear
3:55 AM 77.0 °F 32.0 °F 19% 29.85 in 10.0 mi Calm Calm - N/A   Partly Cloudy
4:15 AM 77.0 °F 32.0 °F 19% 29.84 in 10.0 mi NE 3.5 mph - N/A   Partly Cloudy
4:35 AM 78.8 °F 30.2 °F 17% 29.84 in 10.0 mi SE 4.6 mph - N/A   Clear
4:55 AM 77.0 °F 32.0 °F 19% 29.85 in 10.0 mi East 4.6 mph - N/A   Clear
5:15 AM 77.0 °F 32.0 °F 19% 29.86 in 10.0 mi Calm Calm - N/A   Clear
5:35 AM 77.0 °F 30.2 °F 18% 29.85 in 10.0 mi Calm Calm - N/A   Clear
5:55 AM 77.0 °F 28.4 °F 17% 29.86 in 10.0 mi SSE 4.6 mph - N/A   Clear
6:15 AM 71.6 °F 33.8 °F 25% 29.86 in 10.0 mi Calm Calm - N/A   Clear
6:35 AM 75.2 °F 32.0 °F 21% 29.86 in 10.0 mi Calm Calm - N/A   Clear
6:55 AM 77.0 °F 26.6 °F 16% 29.87 in 10.0 mi SE 8.1 mph - N/A   Clear
7:15 AM 78.8 °F 24.8 °F 14% 29.88 in 10.0 mi SSE 4.6 mph - N/A   Clear
7:35 AM 80.6 °F 21.2 °F 11% 29.89 in 10.0 mi South 8.1 mph - N/A   Clear
7:55 AM 82.4 °F 21.2 °F 10% 29.90 in 10.0 mi South 8.1 mph - N/A   Clear
8:15 AM 84.2 °F 21.2 °F 10% 29.90 in 10.0 mi South 6.9 mph - N/A   Clear
8:35 AM 86.0 °F 19.4 °F 9% 29.90 in 10.0 mi South 8.1 mph - N/A   Clear
8:55 AM 86.0 °F 19.4 °F 9% 29.90 in 10.0 mi SSW 8.1 mph - N/A   Clear
9:15 AM 87.8 °F 19.4 °F 8% 29.91 in 10.0 mi Variable 6.9 mph - N/A   Clear
9:35 AM 87.8 °F 19.4 °F 8% 29.91 in 10.0 mi SW 8.1 mph - N/A   Clear
9:55 AM 91.4 °F 23.0 °F 8% 29.91 in 10.0 mi SSW 11.5 mph 17.3 mph N/A   Clear
10:15 AM 91.4 °F 17.6 °F 7% 29.90 in 10.0 mi SW 13.8 mph 19.6 mph N/A   Clear
10:35 AM 91.4 °F 32.0 °F 12% 29.89 in 10.0 mi South 11.5 mph 19.6 mph N/A   Clear
10:55 AM 93.2 °F 19.4 °F 7% 29.89 in 10.0 mi SW 11.5 mph - N/A   Clear
11:35 AM 93.2 °F 37.4 °F 14% 29.87 in 10.0 mi SE 13.8 mph 21.9 mph N/A   Clear
11:55 AM 93.2 °F 39.2 °F 15% 29.86 in 10.0 mi SE 15.0 mph 21.9 mph N/A   Clear
12:15 PM 95.0 °F 30.2 °F 10% 29.85 in 10.0 mi South 17.3 mph - N/A   Clear
12:35 PM 93.2 °F 30.2 °F 11% 29.84 in 10.0 mi SSW 20.7 mph 27.6 mph N/A   Clear
12:55 PM 95.0 °F 26.6 °F 9% 29.84 in 10.0 mi SW 17.3 mph 26.5 mph N/A   Clear
1:15 PM 93.2 °F 28.4 °F 10% 29.84 in 10.0 mi SW 17.3 mph 24.2 mph N/A   Clear
1:35 PM 93.2 °F 28.4 °F 10% 29.83 in 10.0 mi SW 21.9 mph - N/A   Clear
1:55 PM 95.0 °F 26.6 °F 9% 29.82 in 10.0 mi SW 21.9 mph 28.8 mph N/A   Clear
2:15 PM 95.0 °F 24.8 °F 8% 29.81 in 10.0 mi SW 24.2 mph 35.7 mph N/A   Clear
2:35 PM 93.2 °F 24.8 °F 9% 29.80 in 10.0 mi SW 18.4 mph 31.1 mph N/A   Clear
2:55 PM 95.0 °F 24.8 °F 8% 29.79 in 10.0 mi WSW 19.6 mph 32.2 mph N/A   Clear
3:15 PM 93.2 °F 28.4 °F 10% 29.79 in 10.0 mi WSW 21.9 mph 28.8 mph N/A   Partly Cloudy
3:35 PM 95.0 °F 24.8 °F 8% 29.78 in 10.0 mi WSW 16.1 mph 24.2 mph N/A   Clear
3:55 PM 93.2 °F 24.8 °F 9% 29.78 in 10.0 mi WSW 16.1 mph 24.2 mph N/A   Clear
4:15 PM 91.4 °F 32.0 °F 12% 29.78 in 10.0 mi WSW 19.6 mph - N/A   Clear
4:35 PM 93.2 °F 32.0 °F 11% 29.77 in 10.0 mi WSW 18.4 mph - N/A   Clear
4:55 PM 93.2 °F 30.2 °F 11% 29.76 in 10.0 mi WSW 17.3 mph - N/A   Clear
5:15 PM 93.2 °F 28.4 °F 10% 29.76 in 10.0 mi WSW 19.6 mph 26.5 mph N/A   Clear
5:35 PM 91.4 °F 24.8 °F 9% 29.76 in 10.0 mi WSW 17.3 mph - N/A   Clear
5:55 PM 91.4 °F 24.8 °F 9% 29.76 in 10.0 mi WSW 15.0 mph - N/A   Clear
6:15 PM 91.4 °F 24.8 °F 9% 29.75 in 10.0 mi WSW 20.7 mph - N/A   Clear
6:35 PM 89.6 °F 24.8 °F 10% 29.76 in 10.0 mi WSW 17.3 mph 23.0 mph N/A   Clear
6:55 PM 89.6 °F 24.8 °F 10% 29.76 in 10.0 mi SW 13.8 mph 23.0 mph N/A   Clear
7:15 PM 87.8 °F 28.4 °F 12% 29.75 in 10.0 mi SW 16.1 mph - N/A   Clear
7:35 PM 87.8 °F 26.6 °F 11% 29.76 in 10.0 mi WSW 13.8 mph - N/A   Clear
7:55 PM 87.8 °F 28.4 °F 12% 29.77 in 10.0 mi WSW 11.5 mph - N/A   Partly Cloudy
8:15 PM 86.0 °F 28.4 °F 12% 29.77 in 10.0 mi WSW 12.7 mph 20.7 mph N/A   Clear
8:35 PM 86.0 °F 28.4 °F 12% 29.78 in 10.0 mi SW 13.8 mph - N/A   Clear
8:55 PM 84.2 °F 28.4 °F 13% 29.79 in 10.0 mi SW 10.4 mph - N/A   Clear
9:15 PM 84.2 °F 28.4 °F 13% 29.80 in 10.0 mi SSW 8.1 mph - N/A   Clear
9:35 PM 82.4 °F 28.4 °F 14% 29.80 in 10.0 mi SSW 8.1 mph - N/A   Clear
9:55 PM 82.4 °F 26.6 °F 13% 29.80 in 10.0 mi SSW 12.7 mph - N/A   Clear
10:35 PM 84.2 °F 28.4 °F 13% 29.80 in 10.0 mi SSW 19.6 mph - N/A   Clear
10:55 PM 84.2 °F 30.2 °F 14% 29.80 in 10.0 mi SSW 18.4 mph 26.5 mph N/A   Clear
11:15 PM 84.2 °F 30.2 °F 14% 29.80 in 10.0 mi SSW 21.9 mph 28.8 mph N/A   Clear
11:35 PM 84.2 °F 30.2 °F 14% 29.79 in 10.0 mi SSW 26.5 mph 33.4 mph N/A   Clear
11:55 PM 82.4 °F 28.4 °F 14% 29.78 in 10.0 mi SW 25.3 mph 33.4 mph N/A   Clear